Overview Statistics Trail Chart Weather Telemetry Raw packets
 

This is the latest recevied weather packets stored in our database for station/object EA7URS-13. If no packets are shown the sender has not sent any weather packets the latest 10 day(s).

<< 42 43 44 45 46 47 48 >>
Time Temp. Humidity Pressure Rain* Wind** Luminosity Snow
1788371471 37.22° C 35% 1009.5 hPa 0 mm - 40 W/m² -
1788371170 37.22° C 35% 1009.5 hPa 0 mm - 40 W/m² -
1788370869 37.78° C 30% 1009.5 hPa 0 mm - 43 W/m² -
1788370568 37.78° C 30% 1009.5 hPa 0 mm - 43 W/m² -
1788370267 37.78° C 28% 1009.5 hPa 0 mm - 67 W/m² -
1788369966 37.78° C 28% 1009.5 hPa 0 mm - 67 W/m² -
1788369665 37.78° C 28% 1009.3 hPa 0 mm - 83 W/m² -
1788369364 37.78° C 28% 1009.3 hPa 0 mm - 83 W/m² -
1788369063 37.78° C 26% 1009.6 hPa 0 mm - 104 W/m² -
1788368761 37.78° C 26% 1009.6 hPa 0 mm - 104 W/m² -
1788368460 37.78° C 28% 1009.5 hPa 0 mm - 126 W/m² -
1788368159 37.78° C 28% 1009.5 hPa 0 mm - 126 W/m² -
1788367858 38.33° C 27% 1009.7 hPa 0 mm - 149 W/m² -
1788367557 38.33° C 27% 1009.7 hPa 0 mm - 149 W/m² -
1788367256 38.33° C 25% 1009.5 hPa 0 mm - 180 W/m² -
1788366955 38.33° C 25% 1009.5 hPa 0 mm - 180 W/m² -
1788366654 38.33° C 26% 1009.6 hPa 0 mm - 207 W/m² -
1788366353 38.33° C 26% 1009.6 hPa 0 mm - 207 W/m² -
1788366052 38.33° C 24% 1009.6 hPa 0 mm - 229 W/m² -
1788365751 38.33° C 24% 1009.6 hPa 0 mm - 229 W/m² -
1788365450 38.89° C 26% 1009.7 hPa 0 mm - 220 W/m² -
1788365149 38.89° C 26% 1009.7 hPa 0 mm - 220 W/m² -
1788364847 38.33° C 27% 1009.5 hPa 0 mm - 280 W/m² -
1788364546 38.33° C 27% 1009.5 hPa 0 mm - 280 W/m² -
1788364245 38.33° C 27% 1009.4 hPa 0 mm - 305 W/m² -

* Rain latest hour (hover to see other rain measurements)
** Current wind speed in m/s (hover to see current wind gust speed)